Weather History for Paso Robles, CA

Change the Weather History Date:

Sunday, January 6, 2013

  Actual Average Record
Temperature  
Mean Temperature 45 °F 46 °F  
Max Temperature 50 °F 59 °F 75 °F (2001)
Min Temperature 39 °F 34 °F 18 °F (1950)
Degree Days  
Heating Degree Days 20 18  
Month to date heating degree days 126 113  
Since 1 July heating degree days 1065 1237  
Cooling Degree Days 0 0  
Month to date cooling degree days 0 0  
Year to date cooling degree days 0 0  
Moisture  
Dew Point 42 °F    
Average Humidity 89    
Maximum Humidity 100    
Minimum Humidity 77    
Precipitation  
Precipitation 0.25 in 0.09 in 1.49 in (1974)
Month to date precipitation 0.41 0.51  
Year to date precipitation 0.41 0.51  
Since 1 July precipitation 3.62 4.50  
Sea Level Pressure  
Sea Level Pressure 30.11 in    
Wind  
Wind Speed 8 mph (NW)    
Max Wind Speed 15 mph    
Max Gust Speed 18 mph    
Visibility 10 miles    
Events Rain    
T = Trace of Precipitation, MM = Missing Value Source: NWS Daily Summary

Daily Weather History Graph

Daily Weather History Graph

Search for Another Location

Airport:

Trip Planner

Search our weather history database for the weather conditions in past years. The results will help you decide how hot, cold, wet, or windy it might be!

Date:

Astronomy

Jan. 06, 2013 Rise Set
Actual Time 7:12 AM PST 5:04 PM PST
Civil Twilight 6:44 AM PST 5:32 PM PST
Nautical Twilight 6:12 AM PST 6:04 PM PST
Astronomical Twilight 5:42 AM PST 6:35 PM PST
Moon 1:37 AM PST (1/6) 12:31 PM PST (1/6)
Length of Visible Light 10h 48m
Length of Day
9h 51m
Waning Crescent, 32% of the Moon is Illuminated
Jan 6
Waning Crescent
Jan 11
New
Jan 18
First Quarter
Jan 26
Full
Feb 3
Last Quarter

Hourly Weather History & Observations

Time (PST) Temp. Windchill Dew Point Humidity Pressure Visibility Wind Dir Wind Speed Gust Speed Precip Events Conditions
12:53 AM 46.0 °F 41.4 °F 43.0 °F 89% 30.12 in 10.0 mi SSW 9.2 mph - N/A   Partly Cloudy
1:53 AM 44.1 °F 40.8 °F 42.1 °F 93% 30.12 in 10.0 mi SSE 5.8 mph - 0.01 in Rain Light Rain
2:53 AM 45.0 °F 43.5 °F 44.1 °F 97% 30.12 in 10.0 mi South 3.5 mph - 0.01 in Rain Light Rain
3:53 AM 45.0 °F 40.1 °F 43.0 °F 93% 30.12 in 7.0 mi South 9.2 mph - 0.02 in Rain Light Rain
4:53 AM 43.0 °F 39.5 °F 42.1 °F 97% 30.11 in 10.0 mi SSW 5.8 mph - 0.00 in   Scattered Clouds
5:53 AM 44.1 °F 40.8 °F 42.1 °F 93% 30.11 in 10.0 mi SSW 5.8 mph - 0.01 in Rain Light Rain
6:53 AM 43.0 °F 38.8 °F 41.0 °F 93% 30.11 in 10.0 mi South 6.9 mph - 0.00 in   Mostly Cloudy
7:53 AM 44.1 °F 40.1 °F 41.0 °F 89% 30.11 in 10.0 mi South 6.9 mph - 0.00 in   Overcast
8:53 AM 45.0 °F 41.8 °F 42.1 °F 90% 30.11 in 9.0 mi SE 5.8 mph - 0.01 in Rain Light Rain
9:17 AM 44.6 °F 41.4 °F 42.8 °F 93% 30.10 in 2.0 mi East 5.8 mph - 0.11 in Rain Heavy Rain
9:27 AM 44.6 °F 39.7 °F 42.8 °F 93% 30.10 in 5.0 mi East 9.2 mph - 0.13 in Rain Rain
9:53 AM 45.0 °F 39.3 °F 43.0 °F 93% 30.12 in 10.0 mi ENE 11.5 mph - 0.14 in Rain Light Rain
10:34 AM 46.4 °F 41.9 °F 44.6 °F 93% 30.13 in 10.0 mi North 9.2 mph - 0.05 in Rain Light Rain
10:49 AM 46.4 °F 41.5 °F 44.6 °F 93% 30.13 in 10.0 mi North 10.4 mph - 0.05 in   Overcast
10:53 AM 46.0 °F 41.9 °F 43.0 °F 89% 30.14 in 10.0 mi North 8.1 mph - 0.05 in   Overcast
11:38 AM 48.2 °F - 42.8 °F 82% 30.12 in 10.0 mi NW 12.7 mph - N/A   Mostly Cloudy
11:53 AM 48.0 °F - 43.0 °F 83% 30.12 in 10.0 mi NW 8.1 mph - N/A   Mostly Cloudy
12:08 PM 48.2 °F - 42.8 °F 82% 30.11 in 10.0 mi NW 9.2 mph - N/A   Scattered Clouds
12:53 PM 48.9 °F - 42.1 °F 77% 30.09 in 10.0 mi NW 10.4 mph - N/A   Mostly Cloudy
1:53 PM 48.9 °F - 41.0 °F 74% 30.10 in 10.0 mi NW 11.5 mph - N/A   Overcast
2:53 PM 48.9 °F - 42.1 °F 77% 30.10 in 10.0 mi NNW 11.5 mph - N/A   Overcast
3:16 PM 48.2 °F - 42.8 °F 82% 30.09 in 10.0 mi NNW 11.5 mph - N/A   Overcast
3:53 PM 48.9 °F - 42.1 °F 77% 30.09 in 10.0 mi NW 8.1 mph - N/A   Scattered Clouds
4:53 PM 48.0 °F - 42.1 °F 80% 30.09 in 10.0 mi NW 9.2 mph - N/A   Overcast
5:22 PM 48.2 °F - 42.8 °F 82% 30.09 in 10.0 mi NW 10.4 mph - N/A   Overcast
5:45 PM 48.2 °F - 42.8 °F 82% 30.09 in 10.0 mi WNW 5.8 mph - N/A   Overcast
5:53 PM 48.0 °F - 42.1 °F 80% 30.10 in 10.0 mi NW 8.1 mph - N/A   Overcast
7:53 PM 43.0 °F 38.8 °F 39.9 °F 89% 30.12 in 10.0 mi North 6.9 mph - N/A   Clear
8:53 PM 44.1 °F 40.1 °F 39.9 °F 85% 30.13 in 10.0 mi North 6.9 mph - N/A   Mostly Cloudy
9:53 PM 43.0 °F 36.8 °F 39.9 °F 89% 30.14 in 10.0 mi NW 11.5 mph - N/A   Clear
10:53 PM 42.1 °F 38.4 °F 39.9 °F 92% 30.16 in 10.0 mi NNW 5.8 mph - N/A   Clear
11:53 PM 39.9 °F - 39.0 °F 97% 30.14 in 10.0 mi Calm Calm - N/A   Clear